+ View the NASA Portal
+ Center for Near-Earth Object Studies
IMPORTANT:
The SSD Announcement email list is now available. Major changes are coming in the near future, including possible hostname and/or URL changes. To be notified of such changes, subscribe to this email list.
Please visit
this page
for more details.
Don't show this message again
JPL Small-Body Database Browser
Search:
[
help
]
233094 (2005 RN45)
Classification:
Main-belt Asteroid
SPK-ID:
2233094
[
Ephemeris
|
Orbit Diagram
|
Orbital Elements
|
Mission Design
|
Physical Parameters
|
Discovery Circumstances
]
[ show orbit diagram ]
Orbital Elements at Epoch 2458600.5 (2019-Apr-27.0) TDB
Reference:
JPL 14
(heliocentric ecliptic J2000)
Element
Value
Uncertainty (1-sigma)
Units
e
.1404516018841444
5.5845e-08
a
2.248936576126805
2.084e-08
au
q
1.933069831473952
1.2971e-07
au
i
2.100525755988268
5.6786e-06
deg
node
325.1856870073127
0.00019815
deg
peri
104.6184185811465
0.00019971
deg
M
316.9540363365116
2.8775e-05
deg
t
p
2458747.797091857990
(2019-Sep-21.29709186)
9.9823e-05
TDB
period
1231.8681835866
3.37
1.7123e-05
4.688e-08
d
yr
n
.2922390599876161
4.062e-09
deg/d
Q
2.564803320779658
2.3767e-08
au
Orbit Determination Parameters
# obs. used (total)
256
data-arc span
5663 days (15.50 yr)
first obs. used
2002-12-11
last obs. used
2018-06-13
planetary ephem.
DE431
SB-pert. ephem.
SB431-N16
condition code
0
norm. resid. RMS
.59569
source
ORB
producer
Otto Matic
solution date
2019-Jul-14 08:06:55
Additional Information
Earth MOID
= .948426 au
Jupiter MOID
= 2.69026 au
T_jup
= 3.615
[ show covariance matrix ]
[
Ephemeris
|
Orbit Diagram
|
Orbital Elements
|
Mission Design
|
Physical Parameters
|
Discovery Circumstances
]
Physical Parameter Table
Parameter
Symbol
Value
Units
Sigma
Reference
Notes
absolute magnitude
H
17.3
n/a
MPO454685
233094 (2005 RN45)
Discovered 2005-Sep-14 by Spacewatch at Kitt Peak
Reference:
20100228/Numbers.arc
Last Updated:
2010-03-03
[
Ephemeris
|
Orbit Diagram
|
Orbital Elements
|
Mission Design
|
Physical Parameters
|
Discovery Circumstances
]
2019-Dec-09 13:34 UT
(server date/time)
Site Manager:
Ryan S. Park
Webmaster
:
Alan B. Chamberlin